When you browse on this site, cookies collect data to enhance your experience and personalize the content and advertising you see.
Visit our Privacy Policy to learn more. By continuing to use the site, you agree to this use of cookies and data.
  • en Suisse
  • Liste des pays
  • À 7 jours
  • Température de l'eau
  • Carte météo
  • Widgets météo
  • user-avatar
    Se connecter

    Météo par heure à Salzbourg

    Ce jour, 2 Juin, Mardi

    Heure Température Précipitation Vent Pression Humidité
    00:00 +4°C° 0 mm 1 m/s 627 mmHg 94%
    01:00 +4°C° 0 mm 1 m/s 626 mmHg 94%
    02:00 +4°C° 0 mm 1 m/s 626 mmHg 94%
    03:00 +3°C° 0 mm 1 m/s 626 mmHg 95%
    04:00 +3°C° 0 mm 1 m/s 626 mmHg 95%
    05:00 +5°C° 0 mm 1 m/s 626 mmHg 90%
    06:00 +6°C° 0 mm 0 m/s 627 mmHg 84%
    07:00 +8°C° 0 mm 0 m/s 628 mmHg 79%
    08:00 +11°C° 0 mm 1 m/s 628 mmHg 70%
    09:00 +12°C° 0 mm 1 m/s 629 mmHg 61%
    10:00 +14°C° 0 mm 2 m/s 629 mmHg 53%
    11:00 +14°C° 0.1 mm 2 m/s 629 mmHg 50%
    12:00 +15°C° 0.1 mm 2 m/s 629 mmHg 47%
    13:00 +14°C° 0.1 mm 3 m/s 628 mmHg 44%
    14:00 +14°C° 0.1 mm 3 m/s 628 mmHg 45%
    15:00 +14°C° 0.1 mm 3 m/s 628 mmHg 46%
    16:00 +13°C° 0.1 mm 3 m/s 627 mmHg 47%
    17:00 +13°C° 0.1 mm 2 m/s 627 mmHg 58%
    18:00 +10°C° 0.1 mm 2 m/s 626 mmHg 68%
    19:00 +10°C° 0.1 mm 1 m/s 625 mmHg 78%
    20:00 +8°C° 0 mm 1 m/s 625 mmHg 82%
    21:00 +6°C° 0 mm 1 m/s 624 mmHg 87%
    22:00 +5°C° 0 mm 1 m/s 624 mmHg 91%
    23:00 +5°C° 0 mm 1 m/s 624 mmHg 91%

    Demain, 3 Juin, Mercredi

    Heure Température Précipitation Vent Pression Humidité
    00:00 +4°C° 0 mm 1 m/s 623 mmHg 91%
    01:00 +4°C° 0 mm 1 m/s 623 mmHg 91%
    02:00 +4°C° 0 mm 1 m/s 623 mmHg 91%
    03:00 +4°C° 0 mm 1 m/s 622 mmHg 90%
    04:00 +3°C° 0 mm 1 m/s 622 mmHg 90%
    05:00 +5°C° 0 mm 1 m/s 622 mmHg 83%
    06:00 +8°C° 0 mm 1 m/s 623 mmHg 77%
    07:00 +9°C° 0 mm 0 m/s 623 mmHg 71%
    08:00 +11°C° 0 mm 0 m/s 624 mmHg 61%
    09:00 +14°C° 0 mm 1 m/s 624 mmHg 51%
    10:00 +16°C° 0 mm 1 m/s 625 mmHg 42%
    11:00 +18°C° 0 mm 1 m/s 624 mmHg 39%
    12:00 +18°C° 0 mm 1 m/s 624 mmHg 35%
    13:00 +19°C° 0 mm 1 m/s 624 mmHg 32%
    14:00 +19°C° 0 mm 1 m/s 623 mmHg 35%
    15:00 +17°C° 0 mm 2 m/s 623 mmHg 39%
    16:00 +17°C° 0 mm 2 m/s 622 mmHg 42%
    17:00 +15°C° 0.1 mm 1 m/s 621 mmHg 54%
    18:00 +13°C° 0.1 mm 1 m/s 621 mmHg 66%
    19:00 +11°C° 0.1 mm 1 m/s 620 mmHg 79%
    20:00 +10°C° 0.1 mm 1 m/s 619 mmHg 81%
    21:00 +8°C° 0.1 mm 2 m/s 619 mmHg 83%
    22:00 +6°C° 0.1 mm 2 m/s 619 mmHg 86%
    23:00 +6°C° 0 mm 2 m/s 618 mmHg 86%

    Après-demain, 4 Juin, Jeudi

    Heure Température Précipitation Vent Pression Humidité
    00:00 +6°C° 0 mm 2 m/s 618 mmHg 86%
    01:00 +5°C° 0 mm 2 m/s 617 mmHg 86%
    02:00 +5°C° 0 mm 2 m/s 617 mmHg 88%
    03:00 +5°C° 0 mm 2 m/s 616 mmHg 89%
    04:00 +5°C° 0 mm 1 m/s 616 mmHg 91%
    05:00 +7°C° 0 mm 1 m/s 617 mmHg 86%
    06:00 +8°C° 0 mm 1 m/s 617 mmHg 81%
    07:00 +9°C° 0 mm 0 m/s 618 mmHg 77%
    08:00 +10°C° 0.1 mm 0 m/s 618 mmHg 75%
    09:00 +11°C° 0.1 mm 0 m/s 618 mmHg 73%
    10:00 +12°C° 0.1 mm 0 m/s 618 mmHg 71%
    11:00 +11°C° 0.2 mm 0 m/s 618 mmHg 75%
    12:00 +12°C° 0.2 mm 1 m/s 617 mmHg 78%
    13:00 +12°C° 0.2 mm 1 m/s 617 mmHg 82%
    14:00 +12°C° 0.2 mm 1 m/s 616 mmHg 77%
    15:00 +13°C° 0.2 mm 1 m/s 616 mmHg 72%
    16:00 +14°C° 0.2 mm 2 m/s 616 mmHg 67%
    17:00 +13°C° 0.4 mm 2 m/s 616 mmHg 74%
    18:00 +12°C° 0.4 mm 2 m/s 615 mmHg 81%
    19:00 +9°C° 0.4 mm 2 m/s 615 mmHg 88%
    20:00 +9°C° 0.9 mm 1 m/s 614 mmHg 90%
    21:00 +8°C° 0.9 mm 1 m/s 614 mmHg 93%
    22:00 +7°C° 0.9 mm 1 m/s 614 mmHg 96%
    23:00 +6°C° 1.1 mm 1 m/s 613 mmHg 97%

    5 Juin, Vendredi

    Heure Température Précipitation Vent Pression Humidité
    00:00 +6°C° 1.1 mm 1 m/s 613 mmHg 98%
    01:00 +5°C° 1.1 mm 1 m/s 612 mmHg 98%
    02:00 +5°C° 3.6 mm 1 m/s 612 mmHg 98%
    03:00 +5°C° 3.6 mm 1 m/s 612 mmHg 98%
    04:00 +4°C° 3.6 mm 1 m/s 612 mmHg 98%
    05:00 +4°C° 3.6 mm 1 m/s 612 mmHg 98%
    06:00 +4°C° 3.6 mm 1 m/s 612 mmHg 98%
    07:00 +3°C° 3.6 mm 1 m/s 612 mmHg 98%
    08:00 +3°C° 2.3 mm 1 m/s 612 mmHg 98%
    09:00 +3°C° 2.3 mm 1 m/s 613 mmHg 98%
    10:00 +3°C° 2.3 mm 1 m/s 613 mmHg 98%
    11:00 +3°C° 1.1 mm 1 m/s 613 mmHg 98%
    12:00 +3°C° 1.1 mm 1 m/s 614 mmHg 97%
    13:00 +2°C° 1.1 mm 2 m/s 614 mmHg 97%
    14:00 +2°C° 1 mm 2 m/s 614 mmHg 96%
    15:00 +2°C° 1 mm 2 m/s 615 mmHg 95%
    16:00 +2°C° 1 mm 2 m/s 615 mmHg 94%
    17:00 +3°C° 0.2 mm 1 m/s 615 mmHg 94%
    18:00 +3°C° 0.2 mm 1 m/s 616 mmHg 93%
    19:00 +3°C° 0.2 mm 1 m/s 616 mmHg 93%
    20:00 +2°C° 0 mm 1 m/s 616 mmHg 93%
    21:00 +1°C° 0 mm 1 m/s 617 mmHg 92%
    22:00 +1°C° 0 mm 1 m/s 617 mmHg 92%
    23:00 0°C° 0 mm 1 m/s 617 mmHg 92%

    6 Juin, Samedi

    Heure Température Précipitation Vent Pression Humidité
    00:00 0°C° 0 mm 1 m/s 617 mmHg 91%
    01:00 -1°C° 0 mm 1 m/s 617 mmHg 90%
    02:00 0°C° 0.1 mm 1 m/s 618 mmHg 91%
    03:00 0°C° 0.1 mm 1 m/s 618 mmHg 93%
    04:00 0°C° 0.1 mm 1 m/s 619 mmHg 94%
    05:00 +2°C° 0 mm 1 m/s 620 mmHg 91%
    06:00 +3°C° 0 mm 1 m/s 620 mmHg 89%
    07:00 +4°C° 0 mm 1 m/s 621 mmHg 87%
    08:00 +5°C° 0.1 mm 1 m/s 621 mmHg 83%
    09:00 +7°C° 0.1 mm 1 m/s 622 mmHg 78%
    10:00 +8°C° 0.1 mm 1 m/s 622 mmHg 74%
    11:00 +9°C° 0 mm 1 m/s 622 mmHg 71%
    12:00 +10°C° 0 mm 1 m/s 623 mmHg 67%
    13:00 +11°C° 0 mm 1 m/s 623 mmHg 63%
    14:00 +11°C° 0 mm 1 m/s 623 mmHg 62%
    15:00 +12°C° 0 mm 1 m/s 623 mmHg 62%
    16:00 +12°C° 0 mm 1 m/s 623 mmHg 61%
    17:00 +11°C° 0 mm 1 m/s 623 mmHg 68%
    18:00 +10°C° 0 mm 1 m/s 622 mmHg 75%
    19:00 +9°C° 0 mm 1 m/s 622 mmHg 82%
    20:00 +8°C° 0 mm 1 m/s 622 mmHg 86%
    21:00 +5°C° 0 mm 2 m/s 621 mmHg 90%
    22:00 +4°C° 0 mm 2 m/s 621 mmHg 93%
    23:00 +3°C° 0 mm 2 m/s 621 mmHg 93%

    7 Juin, Dimanche

    Heure Température Précipitation Vent Pression Humidité
    00:00 +3°C° 0 mm 2 m/s 621 mmHg 93%
    01:00 +3°C° 0 mm 2 m/s 621 mmHg 93%
    02:00 +3°C° 0 mm 2 m/s 621 mmHg 92%
    03:00 +3°C° 0 mm 2 m/s 620 mmHg 92%
    04:00 +3°C° 0 mm 2 m/s 620 mmHg 91%
    05:00 +4°C° 0 mm 2 m/s 621 mmHg 87%
    06:00 +6°C° 0 mm 2 m/s 621 mmHg 82%
    07:00 +8°C° 0 mm 2 m/s 622 mmHg 77%
    08:00 +9°C° 0 mm 2 m/s 623 mmHg 70%
    09:00 +12°C° 0 mm 2 m/s 623 mmHg 64%
    10:00 +14°C° 0 mm 2 m/s 624 mmHg 57%
    11:00 +14°C° 0.1 mm 2 m/s 624 mmHg 62%
    12:00 +13°C° 0.1 mm 2 m/s 624 mmHg 66%
    13:00 +13°C° 0.1 mm 2 m/s 623 mmHg 71%
    14:00 +12°C° 0.3 mm 2 m/s 623 mmHg 76%
    15:00 +10°C° 0.3 mm 2 m/s 623 mmHg 81%
    16:00 +11°C° 0.3 mm 1 m/s 623 mmHg 87%
    17:00 +10°C° 0.4 mm 1 m/s 623 mmHg 90%
    18:00 +9°C° 0.4 mm 1 m/s 623 mmHg 94%
    19:00 +8°C° 0.4 mm 1 m/s 623 mmHg 98%
    20:00 +8°C° 0.8 mm 1 m/s 623 mmHg 98%
    21:00 +7°C° 0.8 mm 1 m/s 623 mmHg 99%
    22:00 +7°C° 0.8 mm 1 m/s 623 mmHg 99%
    23:00 +7°C° 0.4 mm 1 m/s 623 mmHg 99%
    Voir plus